    Observer details:
    I39 Observatorio Cruz del Sur, San Justo.  Observer A. Chapman.  0.20-m f/4 
       reflector + CCD.
    I47 Pierre Auger Observatory, Malargue.  Observer M. Masek.  0.3-m f/6.8 
       reflector + CCD.
    I48 Observatorio El Catalejo, Santa Rosa.  Observer J. Spagnotto.  0.20-m f/5 
       reflector + CCD.
    K95 MASTER-SAAO Observatory, Sutherland.  Observers S. Bodrov, V. Lipunov, E. 
       Gorbovskoy, Y. Kechin, N. Tiurina, P. Balanutsa, A. Kuznetsov, I. Gorbunov, 
       F. Balakin, D. Zimnukhov, V. Kornilov, A. Krylov, D. Buckley, R. Podesta, F. 
       Podesta, H. Levato, C. Francile.  0.4-m f/2.5 reflector + CCD.
    Q38 Swan Hill.  Observer M. Mattiazzo.
    Q62 iTelescope Observatory, Siding Spring.  Observers S. M. Tilley, E. Guido, 
       A. Valvasori, D. Denisenko, H. Sato, R. Ligustri, C. Jacques, E. Pimentel, 
       J. Barros.  Measurers S. M. Tilley, E. Guido, A. Valvasori, D. Denisenko, H. 
       Sato, R. Ligustri, C. Jacques.  0.5-m f/6.8 reflector + CCD, 0.43-m f/6.8 
       astrograph + CCD, 0.43-m f/6.8 reflector + CCD, 0.51-m f/6.8 astrograph + 
       CCD + f/4.5 focal reducer, 0.50-m f/4.5 astrograph + CCD.
    W88 Slooh.com Chile Observatory, La Dehesa.  Observers M. Suzuki, N. Paul.  
        0.43-m f/6.8 Corrected Dall-Kirkham + CCD, 0.35-m f/11 Schmidt + CCD.
    W92 MASTER-OAFA Observatory, San Juan.  Observers Y. Kechin, S. Bodrov, V. 
       Lipunov, E. Gorbovskoy, N. Tiurina, P. Balanutsa, A. Kuznetsov, I. Gorbunov, 
       F. Balakin, D. Zimnukhov, V. Kornilov, R. Podesta, F. Podesta, H. Levato, A. 
       Krylov, C. Francile.  0.4-m f/2.5 reflector, 0.4-m f/2.5 reflector + CCD.
    X31 Galileo Galilei Observatory, Oro Verde.  Observer C. Fornari.  0.40-m f/8 
       Ritchey-Chretien + CCD.
    
    Orbital elements:
        C/2020 F5 (MASTER)                                                          
    T 2021 Mar. 22.93079 TT                                 Rudenko                 
    q   4.3359270            (2000.0)            P               Q                  
                       Peri.  310.76295     +0.56791977     +0.81313294             
                       Node   350.64265     -0.28590489     +0.04951207             
    e   1.0            Incl.   51.70157     -0.77183258     +0.57996842             
    From 78 observations 2020 Mar. 16-Apr. 8.                                       
                                                                                    
    Ephemeris:
    Date    TT    R. A. (2000) Decl.     Delta      r    Elong.  Phase   m1    m2
    2020 03 09    16 43 12.7 -74 17 11   5.2546  5.3136    88.0    10.8  15.9
    ...
    2020 03 24    17 01 44.2 -76 46 47   5.0582  5.2465    95.4    10.9  15.8
    ...
    2020 04 01    17 09 34.8 -78 04 19   4.9589  5.2113    99.1    10.9  15.7
    ...
    2020 04 07    17 14 05.4 -79 00 53   4.8877  5.1852   101.8    10.9  15.7
    2020 04 08    17 14 42.2 -79 10 09   4.8762  5.1809   102.2    10.9  15.7
    2020 04 09    17 15 16.3 -79 19 22   4.8647  5.1766   102.6    10.9  15.6
    ...
    2020 04 15    17 17 38.3 -80 13 30   4.7977  5.1509   105.1    10.8  15.6
    ...
    2020 04 23    17 17 21.4 -81 21 46   4.7139  5.1170   108.1    10.8  15.5
    ...
    2020 05 08    17 01 41.9 -83 11 20   4.5756  5.0549   112.9    10.6  15.4
    
    M. P. C. Staff               (C) Copyright 2020 MPC           M.P.E.C. 2020-G73
    


    Read MPEC 2020-G72 Read MPEC 2020-G74


    MPEC number:

    Enter an MPEC number in one of the following forms:

    • 1997-B01 (the full form)
    • J97B01 (the packed version of the full form)
    • B01 (the abbreviated form)